ミュラー第2彗星

131P/Mueller 2 (2026)

English version
Home page
Updated on October 1, 2025

---------------------------------------------------------------------

・ プロフィール

・ 写真集

・ 軌道要素

Epoch 2025 May 5.0 TT = JDT 2460800.5
T 2026 Feb. 15.60815 TT                                 Pike
q   2.4079637            (2000.0)            P               Q
n   0.13989911     Peri.  179.23673     +0.83503628     -0.54547595
a   3.6750175      Node   214.13724     +0.50411255     +0.81089214
e   0.3447749      Incl.    7.36173     +0.22041994     +0.21191963
P   7.05
From 768 observations 1990 Sept. 15-2025 Aug. 4, mean residual 0".8.
     Nongravitational parameters A1 = +0.66, A2 = -0.0450.

・ 光度変化

        m1 = 9.3 + 5 logΔ + 20.0 log r

---------------------------------------------------------------------

軌道要素はM.P.E.C. 2025-P113に掲載されたものです。
光度グラフはComet for Windowsで作成したものです。

---------------------------------------------------------------------

Copyright(C) Seiichi Yoshida (comet@aerith.net). All rights reserved.